STARLINK-35090

Last updated on Mon Oct 20 2025 00:02:06 GMT+0000 (Coordinated Universal Time)

1 65698U 25212Y 25292.29657263 -.00380948 00000+0 -91731-2 0 9992 2 65698 53.1582 282.5671 0001800 30.3536 329.7574 15.42199513 5596
UTC large
Height (km)
Speed (km/s)
/
Latitude / Longitude
Inclination (degrees)
Orbital Period (minutes)
Azimuth
Elevation
Range (km)
Doppler Factor

Next 0 passes for location: London (51.5072 / 0.1276)

Sorry there are no passes over London.